INTELSAT 15 (IS-15)

Last updated on Tue Jul 01 2025 00:02:45 GMT+0000 (Coordinated Universal Time)

1 36106U 09067A 25181.51337378 -.00000186 00000+0 00000+0 0 9996 2 36106 0.0191 22.7276 0002122 80.2153 85.8321 1.00271501 37702
UTC large
Height (km)
Speed (km/s)
/
Latitude / Longitude
Inclination (degrees)
Orbital Period (minutes)
Azimuth
Elevation
Range (km)
Doppler Factor

Next 0 passes for location: London (51.5072 / 0.1276)

Sorry there are no passes over London.